Location: Los Gatos B&B
(42.6926°N, 77.0646°W)
Time: 17:10:36
(UTC-04:00)

Daily predictions for brighter satellites

Satellite Brightness Start Highest point End
(mag) Time Altitude Azimuth Time Altitude Azimuth Time Altitude Azimuth
Cosmos 2074 Rocket 4.1 20:55:06 10° S 21:01:22 85° E 21:07:40 10° N
Cosmos 1782 2.8 21:00:10 10° N 21:04:12 69° E 21:08:13 10° SSE
H-2A R/B 3.5 21:00:49 10° S 21:04:26 54° W 21:08:07 10° NNW
Cosmos 1452 Rocket 3.9 20:59:31 10° S 21:04:28 44° ESE 21:09:28 10° NNE
Cosmos 1674 Rocket 3.6 21:01:47 10° N 21:06:16 74° E 21:10:40 10° SSE
Cosmos 1190 Rocket 4.1 21:01:48 10° NNW 21:07:01 84° WSW 21:12:13 10° SSE
Cosmos 1356 Rocket 4.1 21:03:32 10° SSW 21:07:45 62° WNW 21:12:02 10° N
ATLAS 5 CENTAUR R/B 3.3 21:02:47 10° NW 21:08:35 48° WSW 21:14:44 10° S
Cosmos 1610 Rocket 4.5 21:05:13 10° S 21:11:19 70° E 21:17:32 10° NNE
USA 186 3.2 21:08:55 10° S 21:11:54 40° W 21:15:04 10° NNW
Okean 2 Rocket 4.3 21:09:00 10° SE 21:12:29 23° E 21:15:57 10° NE
Atlas Centaur 2 3.3 21:12:12 10° SSW 21:12:57 10° S 21:13:42 10° S
CENTAUR R/B 4.1 21:07:57 10° NW 21:15:22 45° WSW 21:23:07 10° S
SL-08 ROCKET BODY 4.5 21:09:33 10° S 21:15:34 86° W 21:21:32 10° N
Nadezhda 3 Rocket 4.2 21:11:15 10° N 21:17:31 58° ENE 21:23:47 10° SSE
Meteor 2-6 Rocket 4.4 21:14:39 10° N 21:20:38 86° W 21:26:27 10° S
Cosmos 1242 Rocket 4.0 21:18:12 10° NNE 21:21:13 23° ENE 21:23:49 12° ESE
Cosmos 1939 Rocket 2.8 21:17:40 10° SSE 21:21:31 65° ENE 21:25:26 10° N
Cosmos 1782 Rocket 4.2 21:19:06 10° SSE 21:23:10 36° E 21:27:17 10° NNE
Cosmos 1184 Rocket 3.7 21:20:20 10° SSE 21:23:19 31° E 21:26:19 10° NNE
ISS -3.4 21:20:38 10° SW 21:23:51 60° SE 21:27:04 10° ENE
Sich 1 Rocket 3.6 21:19:24 10° S 21:23:58 81° E 21:28:35 10° N
YAOGAN 6 4.0 21:21:31 12° ESE 21:24:02 23° ENE 21:26:51 10° NNE
Cosmos 1238 Rocket 3.0 21:21:24 10° N 21:24:33 41° E 21:28:10 10° SSE
Cosmos 1408 3.0 21:22:10 10° SSE 21:25:39 43° E 21:29:08 10° NNE
SPOT 5 3.4 21:25:25 10° SSE 21:30:32 53° ENE 21:35:46 10° N
DNEPR-1 R/B 4.3 21:25:38 10° NNW 21:31:03 50° NE 21:34:51 14° ESE
Cosmos 1833 Rocket 4.1 21:26:53 10° N 21:31:30 25° NE 21:35:46 11° ESE
Cosmos 2278 Rocket 2.2 21:30:32 10° S 21:36:09 66° ESE 21:41:47 10° NNE
Cosmos 1825 2.2 21:32:30 10° S 21:36:16 62° E 21:40:04 10° NNE
MetOp-A 4.4 21:31:45 11° SE 21:36:37 51° ENE 21:41:48 10° N
Cosmos 1844 Rocket 3.3 21:31:03 10° SW 21:36:39 63° WNW 21:42:16 10° NNE
Cosmos 1975 Rocket 3.3 21:33:05 10° N 21:37:18 49° ENE 21:40:51 14° SSE
Cosmos 676 Rocket 4.2 21:32:41 10° NNW 21:37:53 75° WSW 21:43:06 10° SSE
Cosmos 2084 3.1 21:35:01 10° SW 21:38:52 87° NW 21:42:43 10° NE
Cosmos 1174 3.9 21:35:56 10° NW 21:39:02 46° WSW 21:41:30 13° S
USA 229 DEB 4.5 21:33:26 10° NNW 21:40:10 43° NE 21:46:06 14° ESE
USA 229 4.5 21:33:32 10° NNW 21:40:16 43° NE 21:46:12 14° ESE
Cosmos 1844 4.0 21:35:55 10° SSW 21:41:41 77° WNW 21:47:31 10° NNE
BREEZE-M DEB (TANK) 4.2 21:40:06 10° WSW 21:41:41 17° SSW 21:43:47 11° SSE
Cosmos 1954 Rocket 4.0 21:36:39 10° NNW 21:41:53 89° W 21:46:48 12° SSE
Cosmos 2341 Rocket 4.0 21:39:09 10° S 21:45:24 73° E 21:51:39 10° NNE
Cosmos 1908 Rocket 3.9 21:43:24 10° SSW 21:47:48 71° W 21:52:15 10° N
Cosmos 1378 Rocket 3.6 21:43:40 10° N 21:48:00 80° W 21:52:19 10° S
COS B Rocket 3.2 21:44:07 10° N 21:48:10 86° W 21:51:47 10° S
Intercosmos 25 3.5 21:47:58 17° SSE 21:50:12 38° E 21:53:11 10° NNE
Cosmos 2082 Rocket 2.7 21:49:48 10° NNW 21:55:16 45° ENE 21:58:58 20° SE
SL-8 Rocket 4.2 21:49:50 10° SSE 21:55:52 52° E 22:01:53 10° NNE
Cosmos 962 Rocket 4.5 21:50:37 10° S 21:56:47 87° E 22:03:04 10° N
Cosmos 1741 Rocket 4.1 21:51:41 10° NNW 21:56:53 61° ENE 22:00:21 21° SE
Nimbus 7 Rocket 4.4 21:51:32 10° NNE 21:57:31 89° ESE 22:03:31 10° SSW
deb Chang Zheng 4 3.9 21:53:31 10° N 21:57:55 69° WNW 22:02:20 10° SSW
Timation 2 Rocket 3.8 21:53:53 10° NNW 21:59:55 80° ENE 22:04:13 20° SSE
Cosmos 1023 Rocket 4.4 21:56:31 10° NNW 22:01:40 88° WSW 22:05:25 19° SSE
Cosmos 1812 4.4 22:00:36 10° NNE 22:03:19 18° ENE 22:04:10 17° E
USA 245 3.3 22:05:04 29° SE 22:06:39 58° ENE 22:10:47 10° N
GPS 2-05 Rocket1 4.0 22:03:52 10° WSW 22:07:02 27° S 22:07:26 26° SSE
Cosmos 2297 3.7 22:06:47 10° S 22:12:25 66° ESE 22:18:07 10° NNE
Envisat 4.0 22:09:33 10° S 22:14:23 44° W 22:19:15 10° NNW
BREEZE-M DEB (TANK) 4.4 22:11:34 10° W 22:14:28 43° N 22:22:04 10° ENE
Cosmos 1295 Rocket 4.5 22:08:18 10° S 22:14:37 87° E 22:20:55 10° N
H-2A R/B 3.3 22:12:44 10° SSW 22:16:42 36° W 22:20:38 10° NNW
Cosmos 2151 Rocket 3.8 22:16:23 27° SSE 22:18:34 52° E 22:22:58 10° NNE
NOAA 11 4.2 22:15:50 24° SSE 22:19:13 72° ENE 22:24:43 10° N
CZ-3C R/B 4.2 22:08:41 10° SW 22:20:17 17° SSW 22:23:56 13° S
COSMOS 2487 4.1 22:17:54 10° NW 22:21:06 30° WSW 22:23:26 15° SSW
CZ-4 R/B 4.0 22:16:53 10° NNE 22:21:27 50° E 22:23:30 29° SSE
APEX 3.6 22:19:14 10° SSW 22:23:11 81° WNW 22:28:25 10° NNE
Cosmos 614 Rocket 3.9 22:18:57 10° NNW 22:24:04 85° WSW 22:26:48 28° SSE
Cosmos 1420 Rocket 4.4 22:21:50 10° SSW 22:27:03 66° WNW 22:32:15 10° NNE
BREEZE-M DEB (TANK) 3.8 22:30:58 10° NW 22:32:46 22° N 22:35:30 10° ENE
Gbstr 26 Del rocket 4.1 22:28:22 10° NW 22:33:21 43° NNE 22:35:56 21° E
Cosmos 1300 Rocket 4.4 22:33:36 31° E 22:33:57 31° E 22:37:53 10° NNE
Cosmos 1140 Rocket 4.4 22:31:27 10° NNW 22:36:17 42° WSW 22:39:36 19° SSW
Cosmos 2366 rocket 3.9 22:32:20 20° S 22:36:51 78° E 22:43:12 10° N
Okean 1 Rocket 4.0 22:38:39 30° E 22:38:49 31° E 22:42:45 10° NNE
USA 234 3.7 22:34:47 10° ENE 22:40:43 36° SE 22:43:01 28° SSE
CZ-4C R/B 3.4 22:41:21 50° SE 22:42:10 64° ENE 22:46:17 10° N
Landsat 7 3.8 22:40:33 40° SSE 22:42:14 71° ENE 22:46:59 10° N
Cosmos 2369 Rocket 4.0 22:45:05 15° E 22:45:05 15° E 22:47:13 10° ENE
H-2A R/B 2.2 22:42:13 36° SE 22:44:20 64° ENE 22:49:34 10° N
CZ-4B R/B 3.6 22:41:37 10° N 22:46:33 69° WNW 22:50:13 17° SSW
ARGOS 3.4 22:46:31 27° S 22:49:23 62° WSW 22:54:43 10° NNW
Timation 1 Rocket 4.3 22:46:57 24° S 22:50:41 67° ESE 22:56:39 10° NNE
Okean 1-7 Rocket 4.2 22:46:41 10° N 22:50:55 39° ENE 22:51:24 38° E
SL-08 RB Rocket 4.0 22:49:27 35° S 22:51:17 65° WSW 22:55:55 10° NNW
Terra 1.8 22:56:47 50° SE 22:57:56 72° ENE 23:02:41 10° N
SPOT 1/Viking Rocket 4.5 22:57:07 23° SSW 22:59:59 43° W 23:04:57 10° NNW
ISS -1.1 22:57:40 10° W 23:00:28 26° NNW 23:03:18 10° NE
Meteor 1-20 Rocket 4.1 23:01:01 36° S 23:03:25 86° E 23:08:58 10° N
Cosmos 1302 Rocket 4.3 23:06:46 45° ESE 23:07:00 45° ESE 23:12:02 10° NNE
Spot 4 3.8 23:11:30 59° SE 23:12:22 75° ENE 23:17:13 10° N
Cosmos 1833 Rocket 3.1 23:10:17 10° NNW 23:15:44 53° WSW 23:17:28 39° SSW
AVUM R/B 4.3 23:12:25 10° NW 23:15:23 42° W 23:15:23 42° W
CARTOSAT-1 3.6 23:15:44 62° SSW 23:16:15 70° WSW 23:20:34 10° NNW
Okean 1 3.4 23:14:23 10° NNW 23:18:26 71° W 23:18:36 69° WSW
Cosmos 1727 Rocket 4.4 23:13:29 10° NNW 23:19:29 55° W 23:22:23 30° SSW
Spot 2 4.2 23:15:40 10° NNE 23:19:31 57° ENE 23:19:31 57° ENE
Lacrosse 5 2.2 23:25:04 50° E 23:25:04 50° E 23:29:11 10° NE
SAR-Lupe-2 4.1 23:28:49 57° NNW 23:28:49 57° NNW 23:31:45 10° NNW
USA 229 DEB 4.3 23:24:28 10° NW 23:31:13 47° WSW 23:33:32 36° SSW
USA 229 4.3 23:24:34 10° NW 23:31:20 48° WSW 23:33:38 36° SSW
Iridium 4 Rocket 3.9 23:28:25 10° N 23:34:17 62° E 23:35:10 55° SE
ASTEX 1 3.5 23:32:28 10° N 23:37:26 74° W 23:38:12 61° SW
Cosmos 1602 4.4 23:38:27 52° NNE 23:38:27 52° NNE 23:41:29 10° N
BREEZE-M DEB (TANK) 4.4 23:32:52 10° WNW 23:38:07 21° WSW 23:38:18 21° WSW
Cosmos 2082 Rocket 3.6 23:34:23 10° NW 23:39:05 27° WSW 23:40:49 23° SW
Cosmos 1812 4.1 23:35:51 10° NNW 23:39:17 31° W 23:39:21 31° W
Cosmos 1892 Rocket 4.3 23:37:57 10° N 23:41:36 42° NE 23:41:36 42° NE
Cosmos 1503 Rocket 4.0 23:40:52 10° NNW 23:46:06 66° ENE 23:46:27 64° E
Meteor 2-4 Rocket 3.6 23:42:12 10° N 23:47:39 66° ENE 23:48:06 63° ESE
NOSS 3-1 (A) 4.0 23:42:14 10° NW 23:49:49 79° NE 23:52:37 46° SE
Genesis I 4.2 23:52:50 45° NNE 23:52:50 45° NNE 23:55:44 10° NNE
Cosmos 1821 Rocket 3.9 23:52:03 58° S 23:53:25 88° W 23:59:40 10° N
CZ-4B R/B 4.1 23:57:11 13° NE 23:57:11 13° NE 23:57:46 10° NNE
